Date String (YYYY-MM-DD hh:mm:ss) UTC,Instrument flags,Ambient pressure (hPa),Sample flow (lpm),Bypass flow (lpm),Sample temperature (°C),Ambient temperature (°C),ASC tube jacket temperature (°C),LED temperature (°C),Box temperature (°C),Sample RH (%),Span deviation,Mass concentration (μg/m³),Mass concentration (μg/m³),Mass concentration (μg/m³)
DateTimeUTC,F1_M11,P_M11,Q1_M11,Q2_M11,T1_M11,T2_M11,T3_M11,T4_M11,T5_M11,U1_M11,ZSPAN_M11,X0_M11,X2_M11,X1_M11
2022-06-13 21:17:00,,0813.1,5.00,0.00,28.7,26.9,00.0,37.4,30.5,12.6,0005.8,0051.02,0035.98,0034.16
2022-06-13 21:18:00,,0813.1,5.01,0.00,28.7,26.9,00.0,37.4,30.5,12.4,0005.5,0052.78,0035.85,0034.05
2022-06-13 21:19:00,,0813.1,5.00,0.00,28.7,27.1,00.0,37.4,30.6,12.3,0004.8,0053.71,0035.60,0033.84
2022-06-13 21:20:00,,0813.1,5.00,0.00,28.7,27.2,00.0,37.4,30.7,12.3,0004.0,0053.56,0035.38,0033.68
2022-06-13 21:21:00,,0813.1,5.00,0.00,28.7,27.4,00.0,37.5,30.8,11.9,0004.0,0052.81,0035.29,0033.66
2022-06-13 21:22:00,,0813.2,4.99,0.00,28.8,27.5,00.0,37.5,30.8,11.1,0003.8,0052.87,0035.25,0033.63
2022-06-13 21:23:00,,0813.2,5.01,0.00,28.8,27.1,00.0,37.4,30.6,10.9,0003.9,0052.42,0035.08,0033.49
2022-06-13 21:24:00,,0813.4,5.00,0.00,28.7,26.8,00.0,37.4,30.5,10.4,0003.8,0051.79,0034.88,0033.32
2022-06-13 21:25:00,,0813.1,4.98,0.00,28.7,26.8,00.0,37.4,30.5,10.6,0003.1,0051.43,0034.75,0033.18
2022-06-13 21:26:00,,0813.1,5.01,0.00,28.7,27.0,00.0,37.4,30.6,10.8,0003.5,0050.41,0034.51,0032.97
2022-06-13 21:27:00,,0813.3,5.00,0.00,28.7,27.2,00.0,37.4,30.7,11.4,0003.8,0049.66,0034.33,0032.78
2022-06-13 21:28:00,,0813.4,5.01,0.00,28.7,27.4,00.0,37.5,30.8,10.9,0003.5,0050.12,0034.17,0032.64
2022-06-13 21:29:00,,0813.5,5.01,0.00,28.8,27.6,00.0,37.5,30.8,11.5,0003.3,0048.35,0034.07,0032.54
2022-06-13 21:30:00,,0813.2,4.99,0.00,28.8,27.4,00.0,37.5,30.8,10.3,0003.7,0046.45,0034.06,0032.50
2022-06-13 21:31:00,,0813.2,5.01,0.00,28.7,26.8,00.0,37.4,30.6,10.0,0004.0,0045.61,0034.08,0032.48
2022-06-13 21:32:00,,0813.0,4.99,0.00,28.7,26.8,00.0,37.4,30.5,09.9,0004.0,0046.32,0034.02,0032.31
2022-06-13 21:33:00,,0813.1,5.00,0.00,28.7,26.8,00.0,37.4,30.5,10.9,0003.8,0046.79,0033.81,0032.14
2022-06-13 21:34:00,,0813.2,5.00,0.00,28.7,27.0,00.0,37.4,30.6,10.9,0003.7,0046.90,0033.73,0032.08
2022-06-13 21:35:00,,0813.1,5.01,0.00,28.7,27.2,00.0,37.5,30.7,11.1,0003.7,0046.87,0033.74,0032.06
2022-06-13 21:36:00,,0813.1,4.99,0.00,28.8,27.5,00.0,37.5,30.8,10.3,0004.3,0047.10,0033.75,0032.07
2022-06-13 21:37:00,,0812.9,5.00,0.00,28.8,27.7,00.0,37.5,30.9,10.6,0004.4,0048.10,0033.83,0032.15
2022-06-13 21:38:00,,0812.9,5.01,0.00,28.8,27.5,00.0,37.5,30.8,10.5,0004.5,0048.03,0033.98,0032.23
2022-06-13 21:39:00,,0813.0,4.98,0.00,28.8,26.8,00.0,37.4,30.5,11.1,0004.6,0046.86,0034.03,0032.26
2022-06-13 21:40:00,,0812.9,5.00,0.00,28.7,26.8,00.0,37.4,30.5,10.6,0004.9,0047.55,0034.14,0032.34
2022-06-13 21:41:00,,0813.1,5.00,0.00,28.7,26.9,00.0,37.4,30.6,10.4,0005.3,0047.33,0034.18,0032.40
2022-06-13 21:42:00,,0813.2,5.02,0.00,28.7,27.0,00.0,37.5,30.6,10.9,0005.5,0047.48,0034.20,0032.44
2022-06-13 21:43:00,,0813.1,5.00,0.00,28.7,27.2,00.0,37.5,30.7,11.5,0005.2,0046.61,0034.25,0032.55
2022-06-13 21:44:00,,0813.1,5.01,0.00,28.8,27.5,00.0,37.5,30.8,10.1,0004.9,0045.37,0034.27,0032.60
2022-06-13 21:45:00,,0813.2,5.00,0.00,28.8,27.7,00.0,37.5,30.8,10.7,0004.6,0046.04,0034.32,0032.61
2022-06-13 21:46:00,,0813.1,4.99,0.00,28.8,27.4,00.0,37.5,30.8,09.8,0005.1,0045.98,0034.25,0032.60
2022-06-13 21:47:00,,0812.9,5.00,0.00,28.7,26.8,00.0,37.5,30.5,10.3,0005.0,0045.52,0034.13,0032.55
2022-06-13 21:48:00,,0812.9,5.01,0.00,28.7,26.7,00.0,37.4,30.5,10.9,0005.3,0045.83,0034.07,0032.50
2022-06-13 21:49:00,,0812.8,5.00,0.00,28.7,26.9,00.0,37.4,30.5,11.9,0005.6,0046.71,0033.97,0032.43
2022-06-13 21:50:00,,0812.8,4.99,0.00,28.7,27.0,00.0,37.4,30.6,10.4,0005.4,0047.75,0033.96,0032.40
2022-06-13 21:51:00,,0812.9,4.99,0.00,28.7,27.2,00.0,37.5,30.7,10.3,0004.6,0048.15,0033.90,0032.36
2022-06-13 21:52:00,,0812.8,5.01,0.00,28.7,27.5,00.0,37.5,30.8,10.0,0004.2,0049.03,0033.87,0032.33
2022-06-13 21:53:00,,0812.8,5.00,0.00,28.8,27.7,00.0,37.5,30.8,10.3,0003.9,0049.81,0033.87,0032.30
2022-06-13 21:54:00,,0812.9,5.01,0.00,28.8,27.8,00.0,37.5,30.9,11.1,0004.2,0050.44,0033.79,0032.21
2022-06-13 21:55:00,,0812.9,4.99,0.00,28.8,27.2,00.0,37.5,30.7,11.5,0004.4,0051.07,0033.85,0032.22
2022-06-13 21:56:00,,0812.9,5.00,0.00,28.8,26.8,00.0,37.5,30.5,12.1,0005.1,0051.58,0033.83,0032.23
2022-06-13 21:57:00,,0812.9,5.00,0.00,28.7,26.8,00.0,37.5,30.6,11.7,0004.8,0051.38,0033.79,0032.22
2022-06-13 21:58:00,,0812.9,5.01,0.00,28.7,27.0,00.0,37.5,30.6,11.3,0004.5,0051.21,0033.79,0032.20
2022-06-13 21:59:00,,0812.9,5.01,0.00,28.7,27.2,00.0,37.5,30.7,10.4,0003.8,0051.07,0033.76,0032.20
